TimePST,TemperatureF,Dew PointF,Humidity,Sea Level PressureIn,VisibilityMPH,Wind Direction,Wind SpeedMPH,Gust SpeedMPH,PrecipitationIn,Events,Conditions,WindDirDegrees,DateUTC
12:56 AM,48.9,45.0,86,30.14,10.0,SSW,3.5,-,N/A,,Clear,200,2012-12-03 08:56:00
1:56 AM,46.0,43.0,89,30.14,10.0,Calm,Calm,-,N/A,,Clear,0,2012-12-03 09:56:00
2:56 AM,46.9,44.1,90,30.15,10.0,Calm,Calm,-,N/A,,Clear,0,2012-12-03 10:56:00
3:56 AM,46.0,43.0,89,30.15,10.0,Calm,Calm,-,N/A,,Clear,0,2012-12-03 11:56:00
4:56 AM,46.0,44.1,93,30.17,10.0,Calm,Calm,-,N/A,,Clear,0,2012-12-03 12:56:00
5:56 AM,44.1,42.1,93,30.17,10.0,Calm,Calm,-,N/A,,Clear,0,2012-12-03 13:56:00
6:56 AM,43.0,41.0,93,30.19,10.0,SE,3.5,-,N/A,,Clear,140,2012-12-03 14:56:00
7:56 AM,46.0,44.1,93,30.21,10.0,Calm,Calm,-,N/A,,Clear,0,2012-12-03 15:56:00
8:56 AM,48.9,45.0,86,30.22,10.0,Calm,Calm,-,N/A,,Clear,0,2012-12-03 16:56:00
9:56 AM,54.0,46.9,77,30.22,10.0,ESE,3.5,-,N/A,,Clear,120,2012-12-03 17:56:00
10:56 AM,57.0,46.9,69,30.21,10.0,Calm,Calm,-,N/A,,Clear,0,2012-12-03 18:56:00
11:56 AM,57.9,48.0,70,30.20,10.0,Variable,3.5,-,N/A,,Clear,0,2012-12-03 19:56:00
12:56 PM,59.0,46.0,62,30.19,10.0,North,5.8,-,N/A,,Clear,360,2012-12-03 20:56:00
1:56 PM,61.0,46.0,58,30.16,10.0,North,4.6,-,N/A,,Clear,350,2012-12-03 21:56:00
2:56 PM,61.0,46.0,58,30.17,10.0,North,5.8,-,N/A,,Clear,350,2012-12-03 22:56:00
3:56 PM,59.0,43.0,55,30.18,10.0,NW,4.6,-,N/A,,Clear,320,2012-12-03 23:56:00
4:56 PM,57.0,45.0,64,30.18,10.0,NW,4.6,-,N/A,,Clear,320,2012-12-04 00:56:00
5:56 PM,55.9,48.0,75,30.18,10.0,Calm,Calm,-,N/A,,Clear,0,2012-12-04 01:56:00
6:56 PM,57.0,46.9,69,30.20,10.0,Calm,Calm,-,0.01,,Clear,0,2012-12-04 02:56:00
7:56 PM,55.0,48.0,77,30.17,10.0,ESE,4.6,-,N/A,,Clear,120,2012-12-04 03:56:00
8:56 PM,55.9,48.0,75,30.17,10.0,West,3.5,-,N/A,,Clear,270,2012-12-04 04:56:00
9:56 PM,54.0,48.0,80,30.20,10.0,North,5.8,-,N/A,,Clear,10,2012-12-04 05:56:00
10:56 PM,54.0,48.9,83,30.19,10.0,South,4.6,-,N/A,,Clear,190,2012-12-04 06:56:00
11:56 PM,53.1,48.0,83,30.18,10.0,Calm,Calm,-,N/A,,Clear,0,2012-12-04 07:56:00